Terminal Aerodrome Forecast
Issued by NWS

Home | Current Version | Previous Version | Text Only | Print | Product List | Glossary On
Versions: 1 2 3 4 5 6 7 8 9 10 11 12 13 14 15 16 17 18 19 20 21 22 23 24 25 26 27 28 29 30 31 32 33
000
FTUS45 KSLC 200537
TAFSGU
TAF
KSGU 200537Z 2006/2106 VRB04KT P6SM SCT150
     FM202000 24012G20KT P6SM SCT100
     FM210100 25012KT P6SM SKC
      AMD LTD TO CLD VIS AND WIND=

USA.gov is the U.S. government's official web portal to all federal, state and local government web resources and services.